Starlink 1029

operational
NORAD ID: 44734 Int'l Des: 2019-074 Owner: SPXS Country: US Constellation: starlink
LEOCIRCULAR

关于 Starlink 1029

正在加载描述...

实时位置

正在加载3D地球...

即将过境

高度历史

Altitude vs Time

uPlot chart will show altitude changes over time

两行轨道根数

1 44734U 19074X 25261.25011574 .00231259 00000-0 90077-3 0 9992
2 44734 53.0506 108.6550 0006272 109.3288 295.1500 15.85916983 5783
Epoch: Sep 18, 2025 • Age: 14 hours

当前状态

高度 310.5 km
速度 7.73 km/s
星下点 23.31°N, 31.97°W
发射日期 Nov 11, 2019
运行时间 5.8 years
类型 internet

技术详情

分类 Payload
质量 260.00 kg
干质量 248.00 kg
总质量 260.00 kg
长度 0.20 m
直径 2.80 m
跨度 9.00 m
形状 Box + pan
制造商 SPXS
平台类型 Starlink
阶段状态 In Orbit
所有者/国家 SPXS/US

大型星座

Loading constellations...